Flag for Poland Weather past 2 weeks in Gdańsk, Poland

Now
37 °F

Scattered clouds.


Feels Like: 32 °F
Forecast: 31 / 40 °F
Wind: 7 mph from Northwest

Location: Gdansk-Rebiechowo

Current Time: Mar 4, 2015 at 5:00:50 PM

Latest Report: Mar 4, 2015 at 4:30 PM


Visibility: N/A

Pressure: 30.01 "Hg

Humidity: 81%

Dew point: 32 °F

Location of GdańskLocation

Historic Weather in Gdańsk — Graph

°F

Gdańsk temperature yesterday

Maximum temperature yesterday: 41 °F (at 4:00 PM)
Minimum temperature yesterday: 34 °F (at 9:30 PM)
Average temperature yesterday: 37 °F

Past Weeks' High & Low Weather Summary

 TemperatureHumidityPressure
High48 °F (Feb 21, 1:00 PM)100% (Feb 24, 12:30 AM)30.54 "Hg (Feb 24, 12:30 AM)
Low28 °F (Feb 23, 4:00 AM)43% (Feb 21, 1:00 PM)29.30 "Hg (Mar 2, 1:30 PM)
Average37 °F82%29.86 "Hg
* Reported Feb 17 4:00 PM — Mar 4 4:00 PM, Gdańsk, Weather by CustomWeather, © 2015

Note: Actual official high and low records may vary slightly from our data, if they occured in-between our weather recording intervals... More about our weather records

Advertising

Gdańsk weather history for previous 24 hours

 ConditionsComfort  
Time TempWeatherWind HumidityBarometerVisibility
4:00 PM
Wed, Mar 4
37 °FScattered clouds.13 mph81%30.01 "HgN/A
3:30 PM37 °FScattered clouds.15 mph81%29.98 "HgN/A
3:00 PM37 °FScattered clouds.13 mph87%29.98 "HgN/A
2:30 PM34 °FSprinkles. Broken clouds.18 mph100%29.98 "Hg5 mi
2:00 PM36 °FSprinkles. Broken clouds.21 mph93%29.95 "Hg2 mi
1:30 PM37 °FScattered clouds.17 mph93%29.95 "HgN/A
1:00 PM36 °FSprinkles. Fog.16 mph93%29.92 "Hg2 mi
12:30 PM37 °FScattered clouds.17 mph93%29.92 "HgN/A
12:00 PM36 °FPartly sunny.17 mph100%29.89 "HgN/A
11:30 AM34 °FPartly sunny.16 mph100%29.89 "HgN/A
11:00 AM34 °FLight rain. Partly sunny.15 mph100%29.86 "Hg6 mi
10:30 AM34 °FSprinkles. Partly sunny.14 mph100%29.83 "Hg6 mi
10:00 AM32 °FRain showers. Partly sunny.12 mph100%29.80 "Hg1 mi
9:30 AM34 °FRain showers. Fog.7 mph100%29.80 "Hg1 mi
9:00 AM34 °FPartly sunny.5 mph93%29.77 "HgN/A
8:30 AM34 °FPartly sunny.5 mph93%29.77 "HgN/A
8:00 AM34 °FPartly sunny.5 mph93%29.77 "HgN/A
7:30 AM34 °FBroken clouds.7 mph93%29.77 "Hg4 mi
7:00 AM34 °FBroken clouds.7 mph100%29.74 "HgN/A
6:30 AM34 °FPartly sunny.6 mph100%29.74 "HgN/A
6:00 AM34 °FPassing clouds.6 mph93%29.74 "HgN/A
5:30 AM34 °FPassing clouds.5 mph100%29.74 "Hg4 mi
5:00 AM34 °FPassing clouds.5 mph93%29.74 "Hg4 mi
4:30 AM32 °FIce fog.3 mph100%29.74 "Hg3 mi
4:00 AM32 °FSnow flurries. Passing clouds.2 mph100%29.77 "Hg1 mi
3:30 AM32 °FSnow showers. Passing clouds.3 mph100%29.77 "Hg1 mi
3:00 AM32 °FSnow showers. Passing clouds.3 mph100%29.77 "Hg1 mi
2:30 AM34 °FSnow showers. Passing clouds.6 mph87%29.80 "Hg2 mi
2:00 AM34 °FSnow flurries. Passing clouds.7 mph87%29.80 "HgN/A
1:30 AM34 °FPassing clouds.6 mph81%29.83 "HgN/A
1:00 AM34 °FPassing clouds.6 mph81%29.83 "HgN/A
12:30 AM34 °FPassing clouds.5 mph81%29.86 "HgN/A
12:00 AM34 °FPassing clouds.3 mph81%29.86 "HgN/A
11:30 PM
Tue, Mar 3
34 °FPassing clouds.5 mph87%29.86 "HgN/A
11:00 PM34 °FPassing clouds.3 mph87%29.89 "HgN/A
10:30 PM34 °FClear.2 mph87%29.89 "Hg10 mi
10:00 PM34 °FClear.5 mph87%29.89 "Hg10 mi
9:30 PM34 °FPassing clouds.6 mph87%29.89 "HgN/A
9:00 PM36 °FPassing clouds.8 mph81%29.89 "HgN/A
8:30 PM36 °FSprinkles. Passing clouds.8 mph81%29.89 "HgN/A
8:00 PM36 °FPassing clouds.9 mph81%29.86 "HgN/A
7:30 PM36 °FPassing clouds.9 mph81%29.86 "HgN/A
7:00 PM36 °FPassing clouds.10 mph81%29.86 "HgN/A
6:30 PM37 °FPassing clouds.14 mph75%29.86 "HgN/A
6:00 PM37 °FPassing clouds.10 mph75%29.86 "HgN/A
5:30 PM37 °FPassing clouds.16 mph75%29.83 "HgN/A
5:00 PM39 °FPassing clouds.16 mph70%29.83 "HgN/A
Weather by CustomWeather, © 2015

See weather overviewHow to use our weather pages